TimePST,TemperatureF,Dew PointF,Humidity,Sea Level PressureIn,VisibilityMPH,Wind Direction,Wind SpeedMPH,Gust SpeedMPH,PrecipitationIn,Events,Conditions,WindDirDegrees,DateUTC
12:53 AM,36.0,27.0,70,29.78,10.0,SSE,3.5,-,N/A,,Overcast,150,2012-12-20 08:53:00
1:53 AM,34.0,28.0,79,29.77,10.0,Calm,Calm,-,N/A,,Overcast,0,2012-12-20 09:53:00
2:53 AM,37.0,27.0,67,29.76,10.0,South,12.7,-,N/A,,Overcast,170,2012-12-20 10:53:00
3:53 AM,36.0,28.0,73,29.75,10.0,SE,5.8,-,N/A,,Overcast,130,2012-12-20 11:53:00
4:53 AM,37.0,28.0,70,29.73,10.0,SE,6.9,-,N/A,,Overcast,140,2012-12-20 12:53:00
5:53 AM,37.0,27.0,67,29.73,10.0,SSE,3.5,-,N/A,,Overcast,160,2012-12-20 13:53:00
6:53 AM,34.0,27.0,75,29.72,10.0,NNW,6.9,-,N/A,,Overcast,340,2012-12-20 14:53:00
7:53 AM,37.9,26.1,62,29.71,10.0,SE,9.2,-,N/A,,Overcast,130,2012-12-20 15:53:00
8:53 AM,37.0,27.0,67,29.70,10.0,Calm,Calm,-,N/A,,Overcast,0,2012-12-20 16:53:00
9:53 AM,37.9,28.0,68,29.70,10.0,East,4.6,-,N/A,,Overcast,80,2012-12-20 17:53:00
10:53 AM,41.0,27.0,57,29.68,10.0,South,5.8,-,N/A,,Overcast,190,2012-12-20 18:53:00
11:53 AM,42.1,27.0,55,29.66,10.0,SSE,11.5,-,N/A,,Overcast,160,2012-12-20 19:53:00
12:53 PM,43.0,26.1,51,29.65,10.0,South,17.3,-,N/A,,Overcast,170,2012-12-20 20:53:00
1:53 PM,41.0,28.9,62,29.67,10.0,South,10.4,-,N/A,,Overcast,170,2012-12-20 21:53:00
2:53 PM,41.0,28.9,62,29.69,10.0,WSW,8.1,-,N/A,,Overcast,240,2012-12-20 22:53:00
3:53 PM,41.0,28.9,62,29.71,10.0,SW,12.7,-,N/A,,Partly Cloudy,220,2012-12-20 23:53:00
4:53 PM,37.0,30.0,76,29.73,10.0,SSW,9.2,-,N/A,,Clear,210,2012-12-21 00:53:00
5:53 PM,35.1,28.9,78,29.76,10.0,SSW,12.7,-,N/A,,Clear,200,2012-12-21 01:53:00
6:53 PM,35.1,30.0,82,29.78,10.0,SSW,9.2,-,N/A,,Overcast,210,2012-12-21 02:53:00
7:53 PM,34.0,28.9,82,29.79,10.0,SSW,9.2,-,N/A,,Mostly Cloudy,210,2012-12-21 03:53:00
8:53 PM,34.0,30.0,85,29.83,10.0,ESE,5.8,-,N/A,,Overcast,120,2012-12-21 04:53:00
9:53 PM,32.0,28.0,85,29.84,10.0,NW,3.5,-,N/A,,Scattered Clouds,320,2012-12-21 05:53:00
10:53 PM,30.9,28.0,89,29.85,10.0,NNE,5.8,-,N/A,,Overcast,30,2012-12-21 06:53:00
11:53 PM,30.9,28.0,89,29.85,10.0,North,3.5,-,N/A,,Scattered Clouds,350,2012-12-21 07:53:00